Location: Ackerson Creek
(37.8210°N, 119.8757°W)
Time: 15:51:11
(UTC+00:00)

ATLAS 2AS CENTAUR R/B - Pass Details

Date: 13 April 2024
Orbit: 1016 x 1195 km, 63.7° (Epoch: 22 May)

Event Time Altitude Azimuth Distance (km) Brightness Sun altitude
Exits shadow 12:37:43 10° 231° (SW) 3,106 4.5 -10.0°
Reaches altitude 10° 12:37:45 10° 231° (SW) 3,098 4.5 -10.0°
Maximum altitude 12:44:59 54° 307° (NW) 1,383 3.1 -8.7°
Drops below altitude 10° 12:52:01 10° 24° (NNE) 3,005 5.7 -7.4°
Sets 12:54:45 0° 29° (NNE) 3,940 6.5 -6.8°
